Location: Middelsbur
(53.6609°N, 7.5020°E)
Time: 00:36:33
(UTC+00:00)

RESURS DK-1 - Pass Details

Date: 06 July 2020
Orbit: 556 x 562 km, 69.9° (Epoch: 03 August)

Event Time Altitude Azimuth Distance (km) Brightness Sun altitude
Rises 22:30:07 0° 328° (NNW) 2,756 7.5 -12.5°
Reaches altitude 10° 22:32:33 10° 340° (NNW) 1,857 6.5 -12.6°
Maximum altitude 22:36:13 30° 42° (NE) 1,030 4.1 -12.7°
Drops below altitude 10° 22:39:53 10° 105° (ESE) 1,851 4.7 -12.9°
Enters shadow 22:41:04 - 111° (ESE) 2,279 5.1 -12.9°
